Fairbanks, AK

10:23 PM AKST on November 18, 2019 (GMT -0900)
Fairbanks International

Weather History for PAFA - January, 1975

Change the Weather History Date:

Saturday, January 25, 1975

  Actual Average Record
Temperature  
Mean Temperature 5 °F -8 °F  
Max Temperature 12 °F 1 °F 45 °F (1991)
Min Temperature 0 °F -17 °F -62 °F (1911)
Degree Days  
Heating Degree Days 60 73  
Month to date heating degree days 1829  
Since 1 July heating degree days 8101  
Cooling Degree Days 0 0  
Month to date cooling degree days 0  
Year to date cooling degree days 0  
Moisture  
Dew Point -3 °F    
Average Humidity 68    
Maximum Humidity 84    
Minimum Humidity 58    
Precipitation  
Precipitation 0.00 in 0.01 in 0.29 in (1968)
Month to date precipitation 0.47  
Year to date precipitation 0.47  
Snow  
Snow 0.00 in 0.30 in 4.20 in (1968)
Month to date snowfall 8.4  
Since 1 July snowfall 46.3  
Snow Depth -    
Sea Level Pressure  
Sea Level Pressure 30.16 in    
Wind  
Wind Speed 2 mph (North)    
Max Wind Speed 6 mph    
Max Gust Speed -    
Visibility 11 miles    
Events Snow    
T = Trace of Precipitation, MM = Missing Value Source: NWS Daily Summary

Daily Weather History Graph

Daily Weather History Graph

Search for Another Location

Airport or City:

Astronomy

Jan. 25, 1975 Rise Set
Actual Time 8:59 AM AHST 3:08 PM AHST
Civil Twilight 7:56 AM AHST 4:12 PM AHST
Nautical Twilight 6:53 AM AHST 5:15 PM AHST
Astronomical Twilight 5:55 AM AHST 6:13 PM AHST
Moon 1:02 PM AHST (1/25) 7:41 AM AHST (1/25)
Length of Visible Light 8h 15m
Length of Day
6h 08m
Waxing Gibbous, 96% of the Moon is Illuminated
Jan 25
Waxing Gibbous
Jan 27
Full
Feb 2
Last Quarter
Feb 10
New
Feb 18
First Quarter

Hourly Weather History & Observations

Time (AHST) Temp. Windchill Dew Point Humidity Pressure Visibility Wind Dir Wind Speed Gust Speed Precip Events Conditions
12:00 AM 8.1 °F - -2.0 °F 64% 30.24 in 6.0 mi Calm Calm - N/A Snow Light Snow
1:00 AM - - - N/A% 30.24 in 6.0 mi NNE 3.5 mph - N/A   Unknown
2:00 AM 8.1 °F 1.4 °F -2.0 °F 64% 30.24 in 10.0 mi NNE 3.5 mph - N/A Snow Light Snow
3:00 AM 8.1 °F -0.5 °F -2.0 °F 64% 30.24 in 10.0 mi North 4.6 mph - N/A Snow Light Snow
4:00 AM 8.1 °F - -2.0 °F 64% 30.24 in 10.0 mi Calm Calm - N/A Snow Light Snow
5:00 AM 8.1 °F -0.5 °F 1.0 °F 73% 30.24 in 15.0 mi NNE 4.6 mph - N/A Snow Light Snow
6:00 AM 7.0 °F -3.3 °F -2.9 °F 64% 30.23 in 15.0 mi North 5.8 mph - N/A Snow Light Snow
6:26 AM - - - N/A% 30.18 in 15.0 mi NE 4.6 mph - N/A   Scattered Clouds
7:00 AM 3.9 °F -3.4 °F -6.0 °F 64% 30.23 in 30.0 mi North 3.5 mph - N/A   Scattered Clouds
8:00 AM 1.0 °F -8.7 °F -6.0 °F 72% 30.23 in 80.0 mi NE 4.6 mph - N/A   Clear
9:00 AM 3.0 °F -8.0 °F -5.1 °F 69% 30.22 in 80.0 mi NW 5.8 mph - N/A   Mostly Cloudy
10:00 AM -0.0 °F -9.9 °F -11.0 °F 60% 30.21 in 80.0 mi NE 4.6 mph - N/A   Mostly Cloudy
11:00 AM -0.0 °F - -9.0 °F 66% 30.20 in 80.0 mi Calm Calm - N/A   Mostly Cloudy
12:00 PM 1.9 °F -5.6 °F -7.1 °F 66% 30.18 in 80.0 mi NE 3.5 mph - N/A   Overcast
1:00 PM 3.9 °F -5.3 °F -2.9 °F 73% 30.18 in 80.0 mi NW 4.6 mph - N/A   Overcast
2:00 PM 3.9 °F - -4.0 °F 70% 30.16 in 60.0 mi Calm Calm - N/A   Overcast
3:00 PM 6.1 °F - -2.9 °F 67% 30.15 in 60.0 mi Calm Calm - N/A   Overcast
4:00 PM 6.1 °F - -6.0 °F 58% 30.14 in 30.0 mi Calm Calm - N/A   Overcast
5:00 PM 6.1 °F - -2.0 °F 69% 30.12 in 15.0 mi Calm Calm - N/A   Overcast
6:00 PM 6.1 °F -2.8 °F -2.9 °F 67% 30.09 in 10.0 mi NNE 4.6 mph - N/A   Overcast
7:00 PM 7.0 °F - -0.9 °F 70% 30.07 in 10.0 mi Calm Calm - N/A   Overcast
8:00 PM 6.1 °F - -2.9 °F 67% 30.05 in 10.0 mi Calm Calm - N/A   Overcast
9:00 PM 8.1 °F 1.4 °F -2.9 °F 61% 30.02 in 10.0 mi North 3.5 mph - N/A   Overcast
10:00 PM 10.9 °F - 6.1 °F 81% 29.99 in 10.0 mi Calm Calm - N/A   Overcast
11:00 PM 12.0 °F - 8.1 °F 84% 29.99 in 10.0 mi Calm Calm - N/A   Overcast